Time,TemperatureF,DewpointF,PressureIn,WindDirection,WindDirectionDegrees,WindSpeedMPH,WindSpeedGustMPH,Humidity,HourlyPrecipIn,Conditions,Clouds,dailyrainin,SolarRadiationWatts/m^2,SoftwareType,DateUTC
2013-01-09 00:02:00,57.0,55.2,30.28,NE,44,0.0,3.0,94,0.00,,,0.01,0.0,meteohub,2013-01-09 05:02:00,
2013-01-09 00:08:00,57.0,55.2,30.27,NE,40,0.0,1.0,94,0.00,,,0.01,0.0,meteohub,2013-01-09 05:08:00,
2013-01-09 00:12:00,57.0,55.2,30.27,NE,51,0.0,1.0,94,0.00,,,0.01,0.0,meteohub,2013-01-09 05:12:00,
2013-01-09 00:17:00,57.0,55.6,30.27,NNE,30,0.0,1.0,95,0.00,,,0.01,0.0,meteohub,2013-01-09 05:17:00,
2013-01-09 00:22:00,57.0,55.6,30.27,NNE,30,0.0,4.0,95,0.00,,,0.01,0.0,meteohub,2013-01-09 05:22:00,
2013-01-09 00:27:00,57.0,55.6,30.28,NNE,30,0.0,4.0,95,0.00,,,0.01,0.0,meteohub,2013-01-09 05:27:00,
2013-01-09 00:33:00,56.8,55.4,30.28,NNE,30,0.0,4.0,95,0.00,,,0.01,0.0,meteohub,2013-01-09 05:33:00,
2013-01-09 00:39:00,56.8,55.4,30.28,NNE,30,0.0,1.0,95,0.00,,,0.01,0.0,meteohub,2013-01-09 05:39:00,
2013-01-09 00:45:00,57.0,55.6,30.27,NNE,30,0.0,1.0,95,0.00,,,0.01,0.0,meteohub,2013-01-09 05:45:00,
2013-01-09 00:51:00,57.0,55.6,30.27,NNE,30,0.0,1.0,95,0.00,,,0.01,0.0,meteohub,2013-01-09 05:51:00,
2013-01-09 00:57:00,57.0,55.6,30.27,NNE,30,0.0,2.0,95,0.00,,,0.01,0.0,meteohub,2013-01-09 05:57:00,
2013-01-09 01:02:00,57.0,55.6,30.27,NNE,30,0.0,2.0,95,0.00,,,0.01,0.0,meteohub,2013-01-09 06:02:00,
2013-01-09 01:07:00,57.0,55.6,30.27,NNE,30,0.0,2.0,95,0.00,,,0.01,0.0,meteohub,2013-01-09 06:07:00,
2013-01-09 01:12:00,57.2,55.8,30.27,ENE,61,0.0,2.0,95,0.00,,,0.01,0.0,meteohub,2013-01-09 06:12:00,
2013-01-09 01:17:00,57.2,55.8,30.27,ENE,61,1.0,2.0,95,0.00,,,0.01,0.0,meteohub,2013-01-09 06:17:00,
2013-01-09 01:22:00,57.2,55.8,30.27,ENE,67,0.0,2.0,95,0.00,,,0.01,0.0,meteohub,2013-01-09 06:22:00,
2013-01-09 01:27:00,57.4,55.9,30.27,NE,56,0.0,4.0,95,0.00,,,0.01,0.0,meteohub,2013-01-09 06:27:00,
2013-01-09 01:32:00,57.4,55.9,30.27,NE,56,0.0,4.0,95,0.00,,,0.01,0.0,meteohub,2013-01-09 06:32:00,
2013-01-09 01:37:00,57.4,56.3,30.27,NE,56,0.0,4.0,96,0.00,,,0.01,0.0,meteohub,2013-01-09 06:37:00,
2013-01-09 01:42:00,57.4,56.3,30.27,NE,56,0.0,3.0,96,0.00,,,0.01,0.0,meteohub,2013-01-09 06:42:00,
2013-01-09 01:47:00,57.6,56.1,30.27,NE,56,0.0,1.0,95,0.00,,,0.01,0.0,meteohub,2013-01-09 06:47:00,
2013-01-09 01:52:00,57.6,56.1,30.27,NE,56,0.0,1.0,95,0.00,,,0.01,0.0,meteohub,2013-01-09 06:52:00,
2013-01-09 01:57:00,57.6,56.5,30.26,NE,56,0.0,1.0,96,0.00,,,0.01,0.0,meteohub,2013-01-09 06:57:00,
2013-01-09 02:02:00,57.6,56.5,30.26,NE,56,0.0,1.0,96,0.00,,,0.01,0.0,meteohub,2013-01-09 07:02:00,
2013-01-09 02:07:00,57.4,55.9,30.26,NE,56,0.0,1.0,95,0.00,,,0.01,0.0,meteohub,2013-01-09 07:07:00,
2013-01-09 02:12:00,57.4,56.3,30.26,NE,56,0.0,1.0,96,0.00,,,0.01,0.0,meteohub,2013-01-09 07:12:00,
2013-01-09 02:17:00,57.4,56.3,30.25,NE,56,0.0,0.0,96,0.00,,,0.01,0.0,meteohub,2013-01-09 07:17:00,
2013-01-09 02:22:00,57.4,56.3,30.26,NE,56,0.0,0.0,96,0.00,,,0.01,0.0,meteohub,2013-01-09 07:22:00,
2013-01-09 02:27:00,57.2,56.1,30.25,NE,56,0.0,0.0,96,0.00,,,0.01,0.0,meteohub,2013-01-09 07:27:00,
2013-01-09 02:32:00,57.4,56.3,30.25,NE,56,0.0,0.0,96,0.00,,,0.01,0.0,meteohub,2013-01-09 07:32:00,
2013-01-09 02:37:00,57.4,56.3,30.25,NE,56,0.0,1.0,96,0.00,,,0.01,0.0,meteohub,2013-01-09 07:37:00,
2013-01-09 02:42:00,57.4,56.3,30.25,NE,56,0.0,1.0,96,0.00,,,0.01,0.0,meteohub,2013-01-09 07:42:00,
2013-01-09 02:47:00,57.2,56.1,30.25,NE,56,0.0,1.0,96,0.00,,,0.01,0.0,meteohub,2013-01-09 07:47:00,
2013-01-09 02:52:00,57.2,56.1,30.25,NE,56,0.0,0.0,96,0.00,,,0.01,0.0,meteohub,2013-01-09 07:52:00,
2013-01-09 02:57:00,57.2,56.1,30.26,NE,56,0.0,0.0,96,0.00,,,0.01,0.0,meteohub,2013-01-09 07:57:00,
2013-01-09 03:02:00,57.2,56.1,30.26,NE,56,0.0,0.0,96,0.00,,,0.01,0.0,meteohub,2013-01-09 08:02:00,
2013-01-09 03:07:00,57.2,56.1,30.26,NE,56,0.0,0.0,96,0.00,,,0.01,0.0,meteohub,2013-01-09 08:07:00,
2013-01-09 03:12:00,57.4,56.3,30.26,NE,56,0.0,0.0,96,0.00,,,0.01,0.0,meteohub,2013-01-09 08:12:00,
2013-01-09 03:17:00,57.6,56.5,30.25,NE,56,0.0,0.0,96,0.00,,,0.01,0.0,meteohub,2013-01-09 08:17:00,
2013-01-09 03:22:00,57.6,56.5,30.25,NE,56,0.0,0.0,96,0.00,,,0.01,0.0,meteohub,2013-01-09 08:22:00,
2013-01-09 03:27:00,57.7,56.7,30.25,NE,50,1.0,1.0,96,0.00,,,0.01,0.0,meteohub,2013-01-09 08:27:00,
2013-01-09 03:32:00,57.7,56.7,30.26,NE,50,0.0,1.0,96,0.00,,,0.01,0.0,meteohub,2013-01-09 08:32:00,
2013-01-09 03:37:00,57.7,56.7,30.25,NE,51,0.0,1.0,96,0.00,,,0.01,0.0,meteohub,2013-01-09 08:37:00,
2013-01-09 03:42:00,57.7,56.7,30.25,NE,51,0.0,1.0,96,0.00,,,0.01,0.0,meteohub,2013-01-09 08:42:00,
2013-01-09 03:47:00,57.9,56.8,30.25,NE,51,0.0,1.0,96,0.00,,,0.01,0.0,meteohub,2013-01-09 08:47:00,
2013-01-09 03:52:00,57.9,56.8,30.26,NE,51,0.0,1.0,96,0.00,,,0.01,0.0,meteohub,2013-01-09 08:52:00,
2013-01-09 03:57:00,57.9,56.8,30.25,NE,51,0.0,1.0,96,0.00,,,0.01,0.0,meteohub,2013-01-09 08:57:00,
2013-01-09 04:02:00,58.1,57.0,30.26,NE,51,0.0,2.0,96,0.00,,,0.01,0.0,meteohub,2013-01-09 09:02:00,
2013-01-09 04:07:00,58.3,57.2,30.26,NE,51,0.0,2.0,96,0.00,,,0.01,0.0,meteohub,2013-01-09 09:07:00,
2013-01-09 04:12:00,58.3,57.2,30.26,NE,51,0.0,2.0,96,0.00,,,0.01,0.0,meteohub,2013-01-09 09:12:00,
2013-01-09 04:17:00,58.3,57.2,30.25,NE,51,1.0,1.0,96,0.00,,,0.01,0.0,meteohub,2013-01-09 09:17:00,
2013-01-09 04:22:00,58.3,57.2,30.25,NE,37,0.0,1.0,96,0.00,,,0.01,0.0,meteohub,2013-01-09 09:22:00,
2013-01-09 04:27:00,58.3,57.2,30.25,NE,37,0.0,2.0,96,0.00,,,0.01,0.0,meteohub,2013-01-09 09:27:00,
2013-01-09 04:32:00,58.5,57.4,30.25,NE,56,2.0,2.0,96,0.00,,,0.01,0.0,meteohub,2013-01-09 09:32:00,
2013-01-09 04:37:00,58.5,57.4,30.25,NNE,28,0.0,2.0,96,0.00,,,0.01,0.0,meteohub,2013-01-09 09:37:00,
2013-01-09 04:42:00,58.5,57.4,30.26,NE,36,0.0,3.0,96,0.00,,,0.01,0.0,meteohub,2013-01-09 09:42:00,
2013-01-09 04:47:00,58.5,57.4,30.25,NE,36,0.0,3.0,96,0.00,,,0.01,0.0,meteohub,2013-01-09 09:47:00,
2013-01-09 04:52:00,58.6,57.6,30.25,NE,52,0.0,3.0,96,0.00,,,0.01,0.0,meteohub,2013-01-09 09:52:00,
2013-01-09 04:57:00,58.6,57.6,30.25,NE,52,0.0,1.0,96,0.00,,,0.01,0.0,meteohub,2013-01-09 09:57:00,
2013-01-09 05:02:00,58.6,57.6,30.25,NE,52,0.0,1.0,96,0.00,,,0.01,0.0,meteohub,2013-01-09 10:02:00,
2013-01-09 05:07:00,58.6,57.6,30.25,NE,52,0.0,1.0,96,0.00,,,0.01,0.0,meteohub,2013-01-09 10:07:00,
2013-01-09 05:12:00,58.6,57.6,30.25,NE,52,0.0,1.0,96,0.00,,,0.01,0.0,meteohub,2013-01-09 10:12:00,
2013-01-09 05:17:00,58.6,57.6,30.25,NE,52,0.0,1.0,96,0.00,,,0.01,0.0,meteohub,2013-01-09 10:17:00,
2013-01-09 05:22:00,58.6,57.6,30.26,NE,52,0.0,0.0,96,0.00,,,0.01,0.0,meteohub,2013-01-09 10:22:00,
2013-01-09 05:27:00,58.6,57.7,30.26,NE,52,0.0,1.0,97,0.00,,,0.01,0.0,meteohub,2013-01-09 10:27:00,
2013-01-09 05:32:00,58.6,57.7,30.26,NE,52,0.0,1.0,97,0.00,,,0.01,0.0,meteohub,2013-01-09 10:32:00,
2013-01-09 05:37:00,58.6,57.7,30.26,NE,52,0.0,1.0,97,0.00,,,0.01,0.0,meteohub,2013-01-09 10:37:00,
2013-01-09 05:42:00,58.6,57.7,30.26,NE,52,0.0,0.0,97,0.00,,,0.01,0.0,meteohub,2013-01-09 10:42:00,
2013-01-09 05:47:00,58.6,57.7,30.27,NE,52,0.0,0.0,97,0.00,,,0.01,0.0,meteohub,2013-01-09 10:47:00,
2013-01-09 05:52:00,58.6,57.7,30.27,NE,52,0.0,0.0,97,0.00,,,0.01,0.0,meteohub,2013-01-09 10:52:00,
2013-01-09 05:57:00,58.6,57.7,30.27,NE,52,0.0,0.0,97,0.00,,,0.01,0.0,meteohub,2013-01-09 10:57:00,
2013-01-09 06:02:00,58.6,57.7,30.27,NE,52,0.0,0.0,97,0.00,,,0.01,0.0,meteohub,2013-01-09 11:02:00,
2013-01-09 06:07:00,58.6,57.7,30.27,NE,52,0.0,1.0,97,0.00,,,0.01,0.0,meteohub,2013-01-09 11:07:00,
2013-01-09 06:12:00,58.6,57.7,30.27,NE,52,0.0,1.0,97,0.00,,,0.01,0.0,meteohub,2013-01-09 11:12:00,
2013-01-09 06:17:00,58.6,57.7,30.27,NE,52,0.0,0.0,97,0.00,,,0.01,0.0,meteohub,2013-01-09 11:17:00,
2013-01-09 06:22:00,58.6,57.7,30.27,NE,52,0.0,0.0,97,0.00,,,0.01,0.0,meteohub,2013-01-09 11:22:00,
2013-01-09 06:27:00,58.8,57.9,30.27,NE,52,0.0,0.0,97,0.00,,,0.01,0.0,meteohub,2013-01-09 11:27:00,
2013-01-09 06:32:00,58.8,57.9,30.27,NE,52,0.0,0.0,97,0.00,,,0.01,0.0,meteohub,2013-01-09 11:32:00,
2013-01-09 06:37:00,58.8,57.9,30.27,NE,52,0.0,0.0,97,0.00,,,0.01,0.0,meteohub,2013-01-09 11:37:00,
2013-01-09 06:42:00,58.8,57.9,30.27,NE,52,0.0,0.0,97,0.00,,,0.01,0.0,meteohub,2013-01-09 11:42:00,
2013-01-09 06:47:00,58.8,57.9,30.28,NE,52,0.0,1.0,97,0.00,,,0.01,0.0,meteohub,2013-01-09 11:47:00,
2013-01-09 06:52:00,58.8,57.9,30.28,NE,52,0.0,1.0,97,0.00,,,0.01,0.0,meteohub,2013-01-09 11:52:00,
2013-01-09 06:57:00,58.8,57.9,30.28,NE,52,0.0,1.0,97,0.00,,,0.01,0.0,meteohub,2013-01-09 11:57:00,
2013-01-09 07:02:00,58.8,57.9,30.28,NE,52,0.0,1.0,97,0.00,,,0.01,0.0,meteohub,2013-01-09 12:02:00,
2013-01-09 07:07:00,58.8,57.9,30.28,NE,52,0.0,1.0,97,0.00,,,0.01,0.0,meteohub,2013-01-09 12:07:00,
2013-01-09 07:12:00,59.0,58.1,30.28,NE,52,0.0,1.0,97,0.00,,,0.01,0.0,meteohub,2013-01-09 12:12:00,
2013-01-09 07:17:00,59.0,58.1,30.28,NE,52,0.0,0.0,97,0.00,,,0.01,0.0,meteohub,2013-01-09 12:17:00,
2013-01-09 07:22:00,59.2,58.3,30.28,NE,52,0.0,0.0,97,0.00,,,0.01,0.0,meteohub,2013-01-09 12:22:00,
2013-01-09 07:27:00,59.2,58.3,30.29,NE,52,0.0,0.0,97,0.00,,,0.01,0.0,meteohub,2013-01-09 12:27:00,
2013-01-09 07:32:00,59.2,58.3,30.29,NE,52,0.0,0.0,97,0.00,,,0.01,0.0,meteohub,2013-01-09 12:32:00,
2013-01-09 07:37:00,59.2,58.3,30.29,NE,52,0.0,0.0,97,0.00,,,0.01,7.0,meteohub,2013-01-09 12:37:00,
2013-01-09 07:42:00,59.4,58.5,30.30,NE,52,0.0,0.0,97,0.00,,,0.01,9.0,meteohub,2013-01-09 12:42:00,
2013-01-09 07:47:00,59.4,58.5,30.30,NE,52,0.0,0.0,97,0.00,,,0.01,11.0,meteohub,2013-01-09 12:47:00,
2013-01-09 07:52:00,59.4,58.5,30.31,NE,52,0.0,0.0,97,0.00,,,0.01,14.0,meteohub,2013-01-09 12:52:00,
2013-01-09 07:57:00,59.4,58.5,30.30,NE,52,0.0,0.0,97,0.00,,,0.01,21.0,meteohub,2013-01-09 12:57:00,
2013-01-09 08:02:00,59.5,58.6,30.31,NE,52,0.0,0.0,97,0.00,,,0.01,30.0,meteohub,2013-01-09 13:02:00,
2013-01-09 08:07:00,59.5,58.6,30.31,NE,52,0.0,0.0,97,0.00,,,0.01,35.0,meteohub,2013-01-09 13:07:00,
2013-01-09 08:12:00,59.7,58.8,30.31,NE,52,0.0,0.0,97,0.00,,,0.01,40.0,meteohub,2013-01-09 13:12:00,
2013-01-09 08:17:00,59.9,59.0,30.32,NE,52,0.0,0.0,97,0.00,,,0.01,44.0,meteohub,2013-01-09 13:17:00,
2013-01-09 08:22:00,60.1,59.2,30.32,NE,51,0.0,0.0,97,0.00,,,0.01,51.0,meteohub,2013-01-09 13:22:00,
2013-01-09 08:27:00,60.3,59.4,30.32,NE,51,0.0,0.0,97,0.00,,,0.01,63.0,meteohub,2013-01-09 13:27:00,
2013-01-09 08:32:00,60.4,59.5,30.32,NE,51,0.0,1.0,97,0.00,,,0.01,58.0,meteohub,2013-01-09 13:32:00,
2013-01-09 08:37:00,60.8,60.3,30.32,NE,51,0.0,1.0,98,0.00,,,0.01,65.0,meteohub,2013-01-09 13:37:00,
2013-01-09 08:42:00,61.0,60.4,30.33,NE,51,0.0,1.0,98,0.00,,,0.01,77.0,meteohub,2013-01-09 13:42:00,
2013-01-09 08:47:00,61.2,60.3,30.33,NE,52,0.0,1.0,97,0.00,,,0.01,90.0,meteohub,2013-01-09 13:47:00,
2013-01-09 08:52:00,61.3,60.4,30.34,NE,52,0.0,1.0,97,0.00,,,0.01,100.0,meteohub,2013-01-09 13:52:00,
2013-01-09 08:57:00,61.3,60.8,30.34,NE,52,0.0,1.0,98,0.00,,,0.01,83.0,meteohub,2013-01-09 13:57:00,
2013-01-09 09:02:00,61.5,61.0,30.34,NE,52,0.0,1.0,98,0.00,,,0.01,109.0,meteohub,2013-01-09 14:02:00,
2013-01-09 09:09:00,62.1,61.2,30.34,NE,52,0.0,1.0,97,0.00,,,0.01,95.0,meteohub,2013-01-09 14:09:00,
2013-01-09 09:15:00,62.2,61.7,30.34,NE,52,1.0,1.0,98,0.00,,,0.01,95.0,meteohub,2013-01-09 14:15:00,
2013-01-09 09:21:00,62.2,61.7,30.34,NE,52,0.0,2.0,98,0.00,,,0.01,120.0,meteohub,2013-01-09 14:21:00,
2013-01-09 09:27:00,62.6,61.7,30.35,NE,52,0.0,2.0,97,0.00,,,0.01,100.0,meteohub,2013-01-09 14:27:00,
2013-01-09 09:32:00,62.6,61.7,30.35,NE,52,0.0,1.0,97,0.00,,,0.01,93.0,meteohub,2013-01-09 14:32:00,
2013-01-09 09:37:00,62.6,61.7,30.35,NE,52,0.0,0.0,97,0.00,,,0.01,121.0,meteohub,2013-01-09 14:37:00,
2013-01-09 09:42:00,62.8,62.2,30.35,ENE,59,0.0,2.0,98,0.00,,,0.01,102.0,meteohub,2013-01-09 14:42:00,
2013-01-09 09:47:00,63.0,62.4,30.35,ENE,59,0.0,2.0,98,0.00,,,0.01,95.0,meteohub,2013-01-09 14:47:00,
2013-01-09 09:52:00,63.1,62.6,30.35,ENE,59,0.0,2.0,98,0.00,,,0.01,149.0,meteohub,2013-01-09 14:52:00,
2013-01-09 09:57:00,63.3,62.8,30.35,ENE,59,0.0,1.0,98,0.00,,,0.01,135.0,meteohub,2013-01-09 14:57:00,
2013-01-09 10:02:00,63.3,62.8,30.35,ENE,59,0.0,2.0,98,0.00,,,0.01,135.0,meteohub,2013-01-09 15:02:00,
2013-01-09 10:07:00,63.5,63.0,30.35,ENE,61,0.0,2.0,98,0.00,,,0.01,93.0,meteohub,2013-01-09 15:07:00,
2013-01-09 10:12:00,63.7,63.1,30.35,ENE,61,0.0,2.0,98,0.00,,,0.01,163.0,meteohub,2013-01-09 15:12:00,
2013-01-09 10:17:00,63.9,63.3,30.35,ENE,57,0.0,2.0,98,0.00,,,0.01,146.0,meteohub,2013-01-09 15:17:00,
2013-01-09 10:22:00,64.0,63.5,30.35,NE,55,0.0,2.0,98,0.00,,,0.01,121.0,meteohub,2013-01-09 15:22:00,
2013-01-09 10:27:00,64.0,63.5,30.35,NE,55,0.0,2.0,98,0.00,,,0.01,135.0,meteohub,2013-01-09 15:27:00,
2013-01-09 10:32:00,64.2,63.7,30.35,NE,55,0.0,2.0,98,0.00,,,0.01,169.0,meteohub,2013-01-09 15:32:00,
2013-01-09 10:37:00,64.6,64.0,30.35,NNE,12,2.0,2.0,98,0.00,,,0.01,171.0,meteohub,2013-01-09 15:37:00,
2013-01-09 10:42:00,64.6,64.0,30.35,ENE,78,0.0,3.0,98,0.00,,,0.01,172.0,meteohub,2013-01-09 15:42:00,
2013-01-09 10:47:00,64.8,64.2,30.35,NE,36,0.0,3.0,98,0.00,,,0.01,186.0,meteohub,2013-01-09 15:47:00,
2013-01-09 10:52:00,64.9,64.4,30.35,ENE,57,0.0,3.0,98,0.00,,,0.01,190.0,meteohub,2013-01-09 15:52:00,
2013-01-09 10:57:00,65.3,64.8,30.35,ENE,73,1.0,2.0,98,0.00,,,0.01,192.0,meteohub,2013-01-09 15:57:00,
2013-01-09 11:02:00,65.5,64.6,30.35,NNE,15,3.0,3.0,97,0.00,,,0.01,165.0,meteohub,2013-01-09 16:02:00,
2013-01-09 11:07:00,65.5,64.6,30.35,ENE,71,0.0,4.0,97,0.00,,,0.01,149.0,meteohub,2013-01-09 16:07:00,
2013-01-09 11:12:00,65.7,64.8,30.35,NE,39,0.0,4.0,97,0.00,,,0.01,156.0,meteohub,2013-01-09 16:12:00,
2013-01-09 11:17:00,65.8,64.9,30.35,NE,39,0.0,4.0,97,0.00,,,0.01,135.0,meteohub,2013-01-09 16:17:00,
2013-01-09 11:22:00,66.0,65.1,30.35,NE,39,0.0,3.0,97,0.00,,,0.01,141.0,meteohub,2013-01-09 16:22:00,
2013-01-09 11:27:00,66.2,64.9,30.34,NE,48,0.0,2.0,96,0.00,,,0.01,188.0,meteohub,2013-01-09 16:27:00,
2013-01-09 11:32:00,66.6,65.3,30.34,NE,48,0.0,2.0,96,0.00,,,0.01,172.0,meteohub,2013-01-09 16:32:00,
2013-01-09 11:37:00,66.7,65.5,30.34,NE,48,0.0,2.0,96,0.00,,,0.01,186.0,meteohub,2013-01-09 16:37:00,
2013-01-09 11:42:00,67.1,65.8,30.33,NE,48,0.0,2.0,96,0.00,,,0.01,246.0,meteohub,2013-01-09 16:42:00,
2013-01-09 11:47:00,67.5,66.0,30.33,ENE,76,3.0,3.0,95,0.00,,,0.01,287.0,meteohub,2013-01-09 16:47:00,
2013-01-09 11:52:00,67.8,66.4,30.33,NE,46,0.0,3.0,95,0.00,,,0.01,272.0,meteohub,2013-01-09 16:52:00,
2013-01-09 11:57:00,68.2,66.0,30.33,NE,53,0.0,3.0,93,0.00,,,0.01,413.0,meteohub,2013-01-09 16:57:00,
2013-01-09 12:02:00,68.9,66.7,30.33,NE,53,0.0,3.0,93,0.00,,,0.01,401.0,meteohub,2013-01-09 17:02:00,
2013-01-09 12:07:00,69.4,67.1,30.32,ENE,74,0.0,3.0,92,0.00,,,0.01,445.0,meteohub,2013-01-09 17:07:00,
2013-01-09 12:12:00,70.0,66.9,30.32,ENE,59,2.0,4.0,90,0.00,,,0.01,515.0,meteohub,2013-01-09 17:12:00,
2013-01-09 12:17:00,70.0,66.9,30.32,ENE,60,2.0,4.0,90,0.00,,,0.01,570.0,meteohub,2013-01-09 17:17:00,
2013-01-09 12:22:00,71.1,67.6,30.31,SSW,197,3.0,4.0,89,0.00,,,0.01,740.0,meteohub,2013-01-09 17:22:00,
2013-01-09 12:27:00,71.4,67.6,30.31,NE,37,0.0,5.0,88,0.00,,,0.01,664.0,meteohub,2013-01-09 17:27:00,
2013-01-09 12:32:00,71.4,67.3,30.31,NE,53,0.0,7.0,87,0.00,,,0.01,520.0,meteohub,2013-01-09 17:32:00,
2013-01-09 12:38:00,72.1,68.4,30.30,NE,47,0.0,7.0,88,0.00,,,0.01,603.0,meteohub,2013-01-09 17:38:00,
2013-01-09 12:44:00,72.3,67.8,30.30,North,355,1.0,5.0,86,0.00,,,0.01,578.0,meteohub,2013-01-09 17:44:00,
2013-01-09 12:50:00,73.2,68.7,30.30,NE,56,0.0,5.0,86,0.00,,,0.01,557.0,meteohub,2013-01-09 17:50:00,
2013-01-09 12:56:00,73.2,68.4,30.30,ENE,71,0.0,5.0,85,0.00,,,0.01,371.0,meteohub,2013-01-09 17:56:00,
2013-01-09 13:02:00,73.8,68.5,30.29,NNE,20,4.0,4.0,84,0.00,,,0.01,473.0,meteohub,2013-01-09 18:02:00,
2013-01-09 13:07:00,73.8,68.9,30.29,North,5,0.0,6.0,85,0.00,,,0.01,656.0,meteohub,2013-01-09 18:07:00,
2013-01-09 13:12:00,74.1,69.3,30.29,ENE,59,0.0,6.0,85,0.00,,,0.01,571.0,meteohub,2013-01-09 18:12:00,
2013-01-09 13:17:00,74.7,69.1,30.29,ENE,58,1.0,6.0,83,0.00,,,0.01,682.0,meteohub,2013-01-09 18:17:00,
2013-01-09 13:22:00,75.2,69.3,30.29,ENE,71,1.0,4.0,82,0.00,,,0.01,649.0,meteohub,2013-01-09 18:22:00,
2013-01-09 13:27:00,75.0,69.1,30.29,East,91,0.0,4.0,82,0.00,,,0.01,469.0,meteohub,2013-01-09 18:27:00,
2013-01-09 13:32:00,75.4,69.4,30.29,NE,34,4.0,4.0,82,0.00,,,0.01,566.0,meteohub,2013-01-09 18:32:00,
2013-01-09 13:37:00,75.6,69.6,30.29,NE,50,0.0,7.0,82,0.00,,,0.01,396.0,meteohub,2013-01-09 18:37:00,
2013-01-09 13:42:00,75.6,69.3,30.28,South,169,0.0,7.0,81,0.00,,,0.01,629.0,meteohub,2013-01-09 18:42:00,
2013-01-09 13:45:00,76.6,70.3,30.28,NNE,28,4.0,7.0,81,0.00,,,0.01,552.0,meteohub,2013-01-09 18:45:00,
2013-01-09 13:48:00,77.0,70.3,30.28,ESE,104,1.0,7.0,80,0.00,,,0.01,501.0,meteohub,2013-01-09 18:48:00,
2013-01-09 13:51:00,77.0,69.6,30.28,SSE,166,1.0,5.0,78,0.00,,,0.01,394.0,meteohub,2013-01-09 18:51:00,
2013-01-09 13:52:00,77.0,69.6,30.28,SSE,166,0.0,5.0,78,0.00,,,0.01,394.0,meteohub,2013-01-09 18:52:00,
2013-01-09 13:57:00,76.5,69.8,30.28,NE,46,3.0,5.0,80,0.00,,,0.01,436.0,meteohub,2013-01-09 18:57:00,
2013-01-09 14:02:00,76.3,69.3,30.28,NE,54,0.0,5.0,79,0.00,,,0.01,341.0,meteohub,2013-01-09 19:02:00,
2013-01-09 14:07:00,76.3,69.6,30.28,NE,54,0.0,5.0,80,0.00,,,0.01,520.0,meteohub,2013-01-09 19:07:00,
2013-01-09 14:13:00,76.5,69.8,30.28,NE,55,0.0,4.0,80,0.00,,,0.01,200.0,meteohub,2013-01-09 19:13:00,
2013-01-09 14:19:00,75.9,69.6,30.28,ENE,57,1.0,4.0,81,0.00,,,0.01,237.0,meteohub,2013-01-09 19:19:00,
2013-01-09 14:25:00,75.7,69.4,30.28,ENE,62,2.0,4.0,81,0.00,,,0.01,269.0,meteohub,2013-01-09 19:25:00,
2013-01-09 14:31:00,75.7,69.4,30.27,SSE,147,6.0,6.0,81,0.00,,,0.01,176.0,meteohub,2013-01-09 19:31:00,
2013-01-09 14:37:00,75.7,69.4,30.28,ENE,58,1.0,6.0,81,0.00,,,0.01,199.0,meteohub,2013-01-09 19:37:00,
2013-01-09 14:42:00,75.6,69.6,30.28,NE,36,0.0,6.0,82,0.00,,,0.01,193.0,meteohub,2013-01-09 19:42:00,
2013-01-09 14:47:00,75.6,69.6,30.28,NE,52,0.0,6.0,82,0.00,,,0.01,220.0,meteohub,2013-01-09 19:47:00,
2013-01-09 14:53:00,75.7,69.4,30.28,ENE,69,0.0,3.0,81,0.00,,,0.01,255.0,meteohub,2013-01-09 19:53:00,
2013-01-09 14:59:00,76.1,69.4,30.28,East,79,0.0,3.0,80,0.00,,,0.01,308.0,meteohub,2013-01-09 19:59:00,
2013-01-09 15:05:00,75.9,69.3,30.28,ENE,57,0.0,3.0,80,0.00,,,0.01,199.0,meteohub,2013-01-09 20:05:00,
2013-01-09 15:11:00,75.7,69.1,30.28,ENE,57,0.0,3.0,80,0.00,,,0.01,181.0,meteohub,2013-01-09 20:11:00,
2013-01-09 15:17:00,75.9,69.6,30.28,SE,144,0.0,3.0,81,0.00,,,0.01,144.0,meteohub,2013-01-09 20:17:00,
2013-01-09 15:22:00,75.9,69.3,30.29,ENE,76,3.0,4.0,80,0.00,,,0.01,144.0,meteohub,2013-01-09 20:22:00,
2013-01-09 15:27:00,75.9,69.6,30.28,ENE,72,0.0,4.0,81,0.00,,,0.01,165.0,meteohub,2013-01-09 20:27:00,
2013-01-09 15:32:00,75.9,69.3,30.29,NE,45,0.0,4.0,80,0.00,,,0.01,142.0,meteohub,2013-01-09 20:32:00,
2013-01-09 15:37:00,75.7,69.1,30.29,East,93,1.0,3.0,80,0.00,,,0.01,98.0,meteohub,2013-01-09 20:37:00,
2013-01-09 15:42:00,75.6,69.6,30.29,ESE,114,1.0,3.0,82,0.00,,,0.01,93.0,meteohub,2013-01-09 20:42:00,
2013-01-09 15:47:00,75.4,69.4,30.29,NE,42,2.0,3.0,82,0.00,,,0.01,84.0,meteohub,2013-01-09 20:47:00,
2013-01-09 15:52:00,75.4,69.4,30.29,ENE,57,2.0,4.0,82,0.00,,,0.01,77.0,meteohub,2013-01-09 20:52:00,
2013-01-09 15:57:00,75.0,69.1,30.29,NE,38,0.0,4.0,82,0.00,,,0.01,86.0,meteohub,2013-01-09 20:57:00,
2013-01-09 16:02:00,74.8,69.3,30.29,NNE,31,0.0,4.0,83,0.00,,,0.01,109.0,meteohub,2013-01-09 21:02:00,
2013-01-09 16:07:00,74.5,69.3,30.29,ENE,61,0.0,4.0,84,0.00,,,0.01,120.0,meteohub,2013-01-09 21:07:00,
2013-01-09 16:12:00,74.1,68.9,30.29,NNE,21,1.0,5.0,84,0.00,,,0.01,116.0,meteohub,2013-01-09 21:12:00,
2013-01-09 16:17:00,73.8,68.9,30.30,ENE,58,1.0,5.0,85,0.00,,,0.01,118.0,meteohub,2013-01-09 21:17:00,
2013-01-09 16:22:00,73.4,68.5,30.29,NE,42,2.0,5.0,85,0.00,,,0.01,107.0,meteohub,2013-01-09 21:22:00,
2013-01-09 16:27:00,73.2,68.7,30.29,NE,56,2.0,7.0,86,0.00,,,0.01,102.0,meteohub,2013-01-09 21:27:00,
2013-01-09 16:32:00,73.0,68.5,30.30,ENE,66,0.0,7.0,86,0.00,,,0.01,88.0,meteohub,2013-01-09 21:32:00,
2013-01-09 16:37:00,73.0,68.5,30.30,NE,49,0.0,4.0,86,0.00,,,0.01,88.0,meteohub,2013-01-09 21:37:00,
2013-01-09 16:42:00,72.9,68.4,30.30,ENE,57,3.0,4.0,86,0.00,,,0.01,69.0,meteohub,2013-01-09 21:42:00,
2013-01-09 16:47:00,72.9,68.4,30.30,NE,46,0.0,4.0,86,0.00,,,0.01,51.0,meteohub,2013-01-09 21:47:00,
2013-01-09 16:52:00,72.7,68.2,30.30,ENE,68,0.0,6.0,86,0.00,,,0.01,60.0,meteohub,2013-01-09 21:52:00,
2013-01-09 16:57:00,72.5,68.0,30.30,NE,54,0.0,6.0,86,0.00,,,0.01,69.0,meteohub,2013-01-09 21:57:00,
2013-01-09 17:02:00,72.3,68.2,30.30,ENE,78,2.0,5.0,87,0.00,,,0.01,67.0,meteohub,2013-01-09 22:02:00,
2013-01-09 17:07:00,72.1,67.6,30.30,ENE,69,0.0,5.0,86,0.00,,,0.01,49.0,meteohub,2013-01-09 22:07:00,
2013-01-09 17:12:00,72.0,67.5,30.30,ENE,73,0.0,4.0,86,0.00,,,0.01,44.0,meteohub,2013-01-09 22:12:00,
2013-01-09 17:17:00,72.0,67.8,30.30,ENE,77,0.0,4.0,87,0.00,,,0.01,39.0,meteohub,2013-01-09 22:17:00,
2013-01-09 17:22:00,71.8,67.6,30.30,ENE,61,0.0,3.0,87,0.00,,,0.01,28.0,meteohub,2013-01-09 22:22:00,
2013-01-09 17:27:00,71.4,67.3,30.31,ENE,61,0.0,3.0,87,0.00,,,0.01,23.0,meteohub,2013-01-09 22:27:00,
2013-01-09 17:32:00,71.2,67.1,30.30,ENE,66,2.0,3.0,87,0.00,,,0.01,14.0,meteohub,2013-01-09 22:32:00,
2013-01-09 17:37:00,71.1,67.3,30.31,NE,54,0.0,4.0,88,0.00,,,0.01,7.0,meteohub,2013-01-09 22:37:00,
2013-01-09 17:42:00,70.9,67.1,30.31,ENE,74,0.0,4.0,88,0.00,,,0.01,0.0,meteohub,2013-01-09 22:42:00,
2013-01-09 17:47:00,70.5,66.7,30.31,ENE,59,1.0,5.0,88,0.00,,,0.01,0.0,meteohub,2013-01-09 22:47:00,
2013-01-09 17:52:00,70.3,66.6,30.31,NE,51,0.0,5.0,88,0.00,,,0.01,0.0,meteohub,2013-01-09 22:52:00,
2013-01-09 17:57:00,70.2,66.7,30.31,ENE,77,0.0,5.0,89,0.00,,,0.01,0.0,meteohub,2013-01-09 22:57:00,
2013-01-09 18:02:00,70.0,66.6,30.31,ENE,73,0.0,4.0,89,0.00,,,0.01,0.0,meteohub,2013-01-09 23:02:00,
2013-01-09 18:07:00,69.6,66.2,30.31,ENE,61,1.0,3.0,89,0.00,,,0.01,0.0,meteohub,2013-01-09 23:07:00,
2013-01-09 18:12:00,69.4,66.0,30.32,East,81,0.0,3.0,89,0.00,,,0.01,0.0,meteohub,2013-01-09 23:12:00,
2013-01-09 18:17:00,69.3,65.8,30.32,ENE,78,2.0,4.0,89,0.00,,,0.01,0.0,meteohub,2013-01-09 23:17:00,
2013-01-09 18:22:00,69.1,66.0,30.32,NNE,26,0.0,4.0,90,0.00,,,0.01,0.0,meteohub,2013-01-09 23:22:00,
2013-01-09 18:27:00,68.9,65.8,30.33,ENE,77,1.0,6.0,90,0.00,,,0.01,0.0,meteohub,2013-01-09 23:27:00,
2013-01-09 18:32:00,68.7,65.7,30.33,ENE,60,1.0,6.0,90,0.00,,,0.01,0.0,meteohub,2013-01-09 23:32:00,
2013-01-09 18:37:00,68.4,65.7,30.33,NE,45,0.0,6.0,91,0.00,,,0.01,0.0,meteohub,2013-01-09 23:37:00,
2013-01-09 18:42:00,68.4,65.7,30.33,ENE,65,1.0,6.0,91,0.00,,,0.01,0.0,meteohub,2013-01-09 23:42:00,
2013-01-09 18:47:00,68.0,65.3,30.33,ENE,57,0.0,6.0,91,0.00,,,0.01,0.0,meteohub,2013-01-09 23:47:00,
2013-01-09 18:52:00,67.8,65.1,30.34,ENE,59,2.0,6.0,91,0.00,,,0.01,0.0,meteohub,2013-01-09 23:52:00,
2013-01-09 18:58:00,67.6,65.3,30.34,NE,55,4.0,6.0,92,0.00,,,0.01,0.0,meteohub,2013-01-09 23:58:00,
2013-01-09 19:04:00,67.5,65.1,30.34,NE,53,1.0,6.0,92,0.00,,,0.01,0.0,meteohub,2013-01-10 00:04:00,
2013-01-09 19:11:00,67.1,64.8,30.34,ENE,65,1.0,10.0,92,0.00,,,0.00,0.0,meteohub,2013-01-10 00:11:00,
2013-01-09 19:17:00,66.9,64.8,30.34,ENE,76,0.0,10.0,93,0.00,,,0.00,0.0,meteohub,2013-01-10 00:17:00,
2013-01-09 19:22:00,66.7,64.6,30.34,East,88,3.0,10.0,93,0.00,,,0.00,0.0,meteohub,2013-01-10 00:22:00,
2013-01-09 19:27:00,66.7,64.6,30.34,ENE,74,2.0,9.0,93,0.00,,,0.00,0.0,meteohub,2013-01-10 00:27:00,
2013-01-09 19:32:00,66.6,64.4,30.34,ENE,57,0.0,9.0,93,0.00,,,0.00,0.0,meteohub,2013-01-10 00:32:00,
2013-01-09 19:37:00,66.6,64.4,30.34,NNE,26,0.0,9.0,93,0.00,,,0.00,0.0,meteohub,2013-01-10 00:37:00,
2013-01-09 19:42:00,66.6,64.8,30.35,NE,34,1.0,5.0,94,0.00,,,0.00,0.0,meteohub,2013-01-10 00:42:00,
2013-01-09 19:47:00,66.6,64.8,30.35,NE,34,0.0,7.0,94,0.00,,,0.00,0.0,meteohub,2013-01-10 00:47:00,
2013-01-09 19:52:00,66.6,64.8,30.35,NE,34,0.0,7.0,94,0.00,,,0.00,0.0,meteohub,2013-01-10 00:52:00,
2013-01-09 20:00:00,66.6,64.8,30.35,ENE,69,0.0,2.0,94,0.00,,,0.00,0.0,meteohub,2013-01-10 01:00:00,
2013-01-09 20:06:00,66.4,64.6,30.35,NE,46,0.0,3.0,94,0.00,,,0.00,0.0,meteohub,2013-01-10 01:06:00,
2013-01-09 20:12:00,66.4,64.6,30.35,NE,53,0.0,3.0,94,0.00,,,0.00,0.0,meteohub,2013-01-10 01:12:00,
2013-01-09 20:17:00,66.4,64.6,30.35,NE,49,1.0,5.0,94,0.00,,,0.00,0.0,meteohub,2013-01-10 01:17:00,
2013-01-09 20:22:00,66.2,64.4,30.35,NE,53,0.0,9.0,94,0.00,,,0.00,0.0,meteohub,2013-01-10 01:22:00,
2013-01-09 20:27:00,66.0,64.2,30.35,ENE,65,0.0,9.0,94,0.00,,,0.00,0.0,meteohub,2013-01-10 01:27:00,
2013-01-09 20:32:00,66.0,64.2,30.35,ENE,62,2.0,9.0,94,0.00,,,0.00,0.0,meteohub,2013-01-10 01:32:00,
2013-01-09 20:37:00,65.8,63.7,30.35,ENE,75,2.0,5.0,93,0.00,,,0.00,0.0,meteohub,2013-01-10 01:37:00,
2013-01-09 20:42:00,65.8,63.7,30.35,ENE,75,0.0,5.0,93,0.00,,,0.00,0.0,meteohub,2013-01-10 01:42:00,
2013-01-09 20:47:00,65.8,63.7,30.35,East,81,0.0,5.0,93,0.00,,,0.00,0.0,meteohub,2013-01-10 01:47:00,
2013-01-09 20:52:00,65.8,63.7,30.35,ENE,63,0.0,4.0,93,0.00,,,0.00,0.0,meteohub,2013-01-10 01:52:00,
2013-01-09 20:57:00,65.8,63.7,30.35,East,79,0.0,4.0,93,0.00,,,0.00,0.0,meteohub,2013-01-10 01:57:00,
2013-01-09 21:02:00,65.7,63.5,30.35,East,79,0.0,3.0,93,0.00,,,0.00,0.0,meteohub,2013-01-10 02:02:00,
2013-01-09 21:07:00,65.7,63.9,30.35,NE,51,1.0,3.0,94,0.00,,,0.00,0.0,meteohub,2013-01-10 02:07:00,
2013-01-09 21:12:00,65.7,63.9,30.35,ENE,59,0.0,3.0,94,0.00,,,0.00,0.0,meteohub,2013-01-10 02:12:00,
2013-01-09 21:17:00,65.7,63.9,30.35,ENE,59,0.0,2.0,94,0.00,,,0.00,0.0,meteohub,2013-01-10 02:17:00,
2013-01-09 21:23:00,65.7,63.9,30.35,West,260,0.0,4.0,94,0.00,,,0.00,0.0,meteohub,2013-01-10 02:23:00,
2013-01-09 21:29:00,65.7,63.9,30.35,NE,56,0.0,4.0,94,0.00,,,0.00,0.0,meteohub,2013-01-10 02:29:00,
2013-01-09 21:35:00,65.7,63.9,30.35,NNE,32,0.0,4.0,94,0.00,,,0.00,0.0,meteohub,2013-01-10 02:35:00,
2013-01-09 21:41:00,65.7,63.9,30.35,NNE,32,0.0,3.0,94,0.00,,,0.00,0.0,meteohub,2013-01-10 02:41:00,
2013-01-09 21:47:00,65.7,63.9,30.35,NNE,32,0.0,2.0,94,0.00,,,0.00,0.0,meteohub,2013-01-10 02:47:00,
2013-01-09 21:52:00,65.5,63.7,30.35,ENE,69,1.0,3.0,94,0.00,,,0.00,0.0,meteohub,2013-01-10 02:52:00,
2013-01-09 21:57:00,65.5,63.7,30.36,NE,55,0.0,4.0,94,0.00,,,0.00,0.0,meteohub,2013-01-10 02:57:00,
2013-01-09 22:02:00,65.5,63.7,30.36,NE,54,0.0,4.0,94,0.00,,,0.00,0.0,meteohub,2013-01-10 03:02:00,
2013-01-09 22:07:00,65.5,63.7,30.36,NE,54,0.0,3.0,94,0.00,,,0.00,0.0,meteohub,2013-01-10 03:07:00,
2013-01-09 22:12:00,65.3,63.5,30.36,NE,54,0.0,3.0,94,0.00,,,0.00,0.0,meteohub,2013-01-10 03:12:00,
2013-01-09 22:18:00,65.1,63.3,30.36,NE,54,0.0,1.0,94,0.00,,,0.00,0.0,meteohub,2013-01-10 03:18:00,
2013-01-09 22:24:00,65.1,63.3,30.36,NE,54,1.0,2.0,94,0.00,,,0.00,0.0,meteohub,2013-01-10 03:24:00,
2013-01-09 22:30:00,65.1,63.3,30.36,ENE,61,0.0,2.0,94,0.00,,,0.00,0.0,meteohub,2013-01-10 03:30:00,
2013-01-09 22:37:00,64.9,63.5,30.36,ENE,61,0.0,3.0,95,0.00,,,0.00,0.0,meteohub,2013-01-10 03:37:00,
2013-01-09 22:42:00,64.9,63.5,30.36,NE,53,0.0,3.0,95,0.00,,,0.00,0.0,meteohub,2013-01-10 03:42:00,
2013-01-09 22:47:00,64.9,63.5,30.36,NE,53,0.0,3.0,95,0.00,,,0.00,0.0,meteohub,2013-01-10 03:47:00,
2013-01-09 22:52:00,64.9,63.5,30.36,NE,53,1.0,3.0,95,0.00,,,0.00,0.0,meteohub,2013-01-10 03:52:00,
2013-01-09 22:57:00,64.9,63.5,30.36,NE,53,0.0,3.0,95,0.00,,,0.00,0.0,meteohub,2013-01-10 03:57:00,
2013-01-09 23:02:00,64.9,63.5,30.36,NE,53,1.0,2.0,95,0.00,,,0.00,0.0,meteohub,2013-01-10 04:02:00,
2013-01-09 23:07:00,64.8,63.3,30.36,NE,53,0.0,2.0,95,0.00,,,0.00,0.0,meteohub,2013-01-10 04:07:00,
2013-01-09 23:12:00,64.8,63.3,30.36,NE,53,0.0,2.0,95,0.00,,,0.00,0.0,meteohub,2013-01-10 04:12:00,
2013-01-09 23:17:00,64.8,63.3,30.36,NNE,15,0.0,1.0,95,0.00,,,0.00,0.0,meteohub,2013-01-10 04:17:00,
2013-01-09 23:22:00,64.8,63.3,30.36,NNE,16,0.0,1.0,95,0.00,,,0.00,0.0,meteohub,2013-01-10 04:22:00,
2013-01-09 23:27:00,64.8,63.3,30.36,NNE,16,0.0,2.0,95,0.00,,,0.00,0.0,meteohub,2013-01-10 04:27:00,
2013-01-09 23:32:00,64.8,63.3,30.37,ENE,58,0.0,2.0,95,0.00,,,0.00,0.0,meteohub,2013-01-10 04:32:00,
2013-01-09 23:37:00,64.8,63.3,30.37,ENE,58,0.0,1.0,95,0.00,,,0.00,0.0,meteohub,2013-01-10 04:37:00,
2013-01-09 23:42:00,64.8,63.3,30.37,ENE,63,3.0,3.0,95,0.00,,,0.00,0.0,meteohub,2013-01-10 04:42:00,
2013-01-09 23:47:00,64.8,63.3,30.37,ENE,70,0.0,3.0,95,0.00,,,0.00,0.0,meteohub,2013-01-10 04:47:00,
2013-01-09 23:52:00,64.8,63.3,30.37,ENE,70,0.0,3.0,95,0.00,,,0.00,0.0,meteohub,2013-01-10 04:52:00,
2013-01-09 23:57:00,64.8,63.3,30.37,ENE,70,0.0,3.0,95,0.00,,,0.00,0.0,meteohub,2013-01-10 04:57:00,